When you browse on this site, cookies collect data to enhance your experience and personalize the content and advertising you see.
Visit our Privacy Policy to learn more. By continuing to use the site, you agree to this use of cookies and data.
  • In Netherlands
  • List of Countries
  • For 7 days
  • Water Temperature
  • Weather Map
  • Weather Widgets
  • user-avatar
    Login

    Hourly Weather Warwick

    Today, 1 June, Monday

    Time Temperature Precipitation Wind Pressure Humidity
    00:00 +9°C° 0 mm 3 mps 764 mmHg 84%
    01:00 +9°C° 0 mm 3 mps 763 mmHg 87%
    02:00 +8°C° 0 mm 3 mps 763 mmHg 89%
    03:00 +8°C° 0 mm 3 mps 763 mmHg 92%
    04:00 +9°C° 0 mm 3 mps 763 mmHg 90%
    05:00 +10°C° 0 mm 3 mps 763 mmHg 89%
    06:00 +11°C° 0 mm 4 mps 763 mmHg 88%
    07:00 +13°C° 0 mm 4 mps 763 mmHg 83%
    08:00 +15°C° 0 mm 4 mps 763 mmHg 79%
    09:00 +18°C° 0 mm 4 mps 763 mmHg 74%
    10:00 +19°C° 0 mm 4 mps 763 mmHg 72%
    11:00 +19°C° 0 mm 4 mps 763 mmHg 69%
    12:00 +20°C° 0 mm 4 mps 763 mmHg 67%
    13:00 +20°C° 0 mm 4 mps 763 mmHg 67%
    14:00 +21°C° 0 mm 4 mps 763 mmHg 67%
    15:00 +21°C° 0 mm 3 mps 762 mmHg 67%
    16:00 +20°C° 0.1 mm 4 mps 762 mmHg 71%
    17:00 +20°C° 0.1 mm 4 mps 762 mmHg 75%
    18:00 +19°C° 0.1 mm 4 mps 762 mmHg 78%
    19:00 +17°C° 0 mm 4 mps 762 mmHg 80%
    20:00 +14°C° 0 mm 4 mps 763 mmHg 82%
    21:00 +12°C° 0 mm 4 mps 763 mmHg 84%
    22:00 +11°C° 0 mm 3 mps 763 mmHg 86%
    23:00 +10°C° 0 mm 3 mps 763 mmHg 88%

    Tomorrow, 2 June, Tuesday

    Time Temperature Precipitation Wind Pressure Humidity
    00:00 +9°C° 0 mm 3 mps 763 mmHg 90%
    01:00 +9°C° 0 mm 2 mps 763 mmHg 91%
    02:00 +8°C° 0 mm 2 mps 762 mmHg 91%
    03:00 +8°C° 0 mm 2 mps 762 mmHg 92%
    04:00 +9°C° 0 mm 2 mps 762 mmHg 91%
    05:00 +10°C° 0 mm 2 mps 762 mmHg 89%
    06:00 +12°C° 0 mm 2 mps 762 mmHg 87%
    07:00 +13°C° 0 mm 2 mps 762 mmHg 80%
    08:00 +15°C° 0 mm 2 mps 761 mmHg 73%
    09:00 +17°C° 0 mm 3 mps 761 mmHg 66%
    10:00 +18°C° 0 mm 2 mps 761 mmHg 62%
    11:00 +19°C° 0 mm 2 mps 760 mmHg 58%
    12:00 +20°C° 0 mm 2 mps 760 mmHg 54%
    13:00 +20°C° 0 mm 2 mps 760 mmHg 54%
    14:00 +21°C° 0 mm 2 mps 759 mmHg 53%
    15:00 +21°C° 0 mm 2 mps 758 mmHg 53%
    16:00 +21°C° 0 mm 2 mps 758 mmHg 57%
    17:00 +22°C° 0 mm 1 mps 757 mmHg 61%
    18:00 +21°C° 0 mm 1 mps 757 mmHg 65%
    19:00 +19°C° 0 mm 1 mps 757 mmHg 68%
    20:00 +16°C° 0 mm 1 mps 757 mmHg 71%
    21:00 +14°C° 0 mm 1 mps 756 mmHg 74%
    22:00 +14°C° 0 mm 1 mps 756 mmHg 74%
    23:00 +13°C° 0 mm 1 mps 755 mmHg 74%

    Day after tomorrow, 3 June, Wednesday

    Time Temperature Precipitation Wind Pressure Humidity
    00:00 +13°C° 0 mm 2 mps 755 mmHg 75%
    01:00 +13°C° 0 mm 2 mps 755 mmHg 77%
    02:00 +12°C° 0 mm 2 mps 754 mmHg 78%
    03:00 +12°C° 0 mm 2 mps 754 mmHg 80%
    04:00 +13°C° 0 mm 2 mps 753 mmHg 82%
    05:00 +13°C° 0 mm 2 mps 753 mmHg 83%
    06:00 +13°C° 0 mm 3 mps 753 mmHg 84%
    07:00 +13°C° 0 mm 3 mps 753 mmHg 82%
    08:00 +14°C° 0 mm 4 mps 753 mmHg 79%
    09:00 +14°C° 0 mm 4 mps 753 mmHg 76%
    10:00 +15°C° 0.1 mm 4 mps 753 mmHg 76%
    11:00 +15°C° 0.1 mm 4 mps 753 mmHg 75%
    12:00 +15°C° 0.1 mm 5 mps 753 mmHg 75%
    13:00 +16°C° 0.1 mm 5 mps 752 mmHg 73%
    14:00 +16°C° 0.1 mm 5 mps 752 mmHg 72%
    15:00 +17°C° 0.1 mm 6 mps 752 mmHg 71%
    16:00 +16°C° 0.1 mm 6 mps 752 mmHg 72%
    17:00 +16°C° 0.1 mm 5 mps 752 mmHg 72%
    18:00 +15°C° 0.1 mm 5 mps 752 mmHg 73%
    19:00 +14°C° 0 mm 5 mps 752 mmHg 77%
    20:00 +12°C° 0 mm 4 mps 752 mmHg 81%
    21:00 +11°C° 0 mm 4 mps 753 mmHg 86%
    22:00 +10°C° 0 mm 3 mps 753 mmHg 88%
    23:00 +9°C° 0 mm 3 mps 752 mmHg 90%

    4 June, Thursday

    Time Temperature Precipitation Wind Pressure Humidity
    00:00 +9°C° 0 mm 3 mps 752 mmHg 93%
    01:00 +9°C° 0 mm 3 mps 752 mmHg 92%
    02:00 +8°C° 0 mm 3 mps 752 mmHg 91%
    03:00 +8°C° 0 mm 3 mps 752 mmHg 90%
    04:00 +9°C° 0 mm 2 mps 751 mmHg 87%
    05:00 +9°C° 0 mm 2 mps 751 mmHg 85%
    06:00 +9°C° 0 mm 2 mps 751 mmHg 83%
    07:00 +11°C° 0 mm 3 mps 751 mmHg 77%
    08:00 +12°C° 0 mm 3 mps 751 mmHg 70%
    09:00 +13°C° 0 mm 3 mps 751 mmHg 64%
    10:00 +14°C° 0 mm 3 mps 750 mmHg 65%
    11:00 +14°C° 0 mm 3 mps 750 mmHg 65%
    12:00 +14°C° 0 mm 4 mps 750 mmHg 66%
    13:00 +14°C° 0 mm 4 mps 750 mmHg 64%
    14:00 +15°C° 0 mm 5 mps 749 mmHg 63%
    15:00 +15°C° 0 mm 5 mps 749 mmHg 62%
    16:00 +15°C° 0 mm 5 mps 749 mmHg 64%
    17:00 +14°C° 0 mm 4 mps 749 mmHg 66%
    18:00 +14°C° 0 mm 4 mps 748 mmHg 68%
    19:00 +12°C° 0 mm 4 mps 748 mmHg 73%
    20:00 +11°C° 0 mm 3 mps 748 mmHg 78%
    21:00 +10°C° 0 mm 3 mps 748 mmHg 83%
    22:00 +9°C° 0 mm 3 mps 748 mmHg 85%
    23:00 +9°C° 0 mm 3 mps 747 mmHg 86%

    5 June, Friday

    Time Temperature Precipitation Wind Pressure Humidity
    00:00 +7°C° 0 mm 4 mps 747 mmHg 88%
    01:00 +8°C° 0 mm 5 mps 746 mmHg 86%
    02:00 +8°C° 0 mm 6 mps 745 mmHg 84%
    03:00 +9°C° 0 mm 6 mps 745 mmHg 83%
    04:00 +10°C° 0 mm 7 mps 744 mmHg 81%
    05:00 +10°C° 0 mm 7 mps 743 mmHg 79%
    06:00 +11°C° 0 mm 8 mps 743 mmHg 78%
    07:00 +11°C° 0.1 mm 8 mps 743 mmHg 78%
    08:00 +12°C° 0.1 mm 8 mps 742 mmHg 77%
    09:00 +12°C° 0.1 mm 8 mps 742 mmHg 77%
    10:00 +13°C° 0.1 mm 8 mps 742 mmHg 71%
    11:00 +13°C° 0.1 mm 8 mps 742 mmHg 64%
    12:00 +15°C° 0.1 mm 9 mps 742 mmHg 58%
    13:00 +15°C° 0.1 mm 8 mps 743 mmHg 57%
    14:00 +15°C° 0.1 mm 8 mps 743 mmHg 57%
    15:00 +15°C° 0.1 mm 8 mps 743 mmHg 57%
    16:00 +14°C° 0 mm 7 mps 743 mmHg 58%
    17:00 +14°C° 0 mm 6 mps 743 mmHg 59%
    18:00 +13°C° 0 mm 6 mps 744 mmHg 60%
    19:00 +12°C° 0 mm 5 mps 744 mmHg 62%
    20:00 +10°C° 0 mm 4 mps 745 mmHg 64%
    21:00 +7°C° 0 mm 4 mps 745 mmHg 66%
    22:00 +7°C° 0 mm 4 mps 745 mmHg 70%
    23:00 +6°C° 0 mm 4 mps 746 mmHg 74%

    6 June, Saturday

    Time Temperature Precipitation Wind Pressure Humidity
    00:00 +6°C° 0 mm 4 mps 746 mmHg 78%
    01:00 +5°C° 0 mm 4 mps 746 mmHg 80%
    02:00 +5°C° 0 mm 4 mps 746 mmHg 82%
    03:00 +4°C° 0 mm 4 mps 747 mmHg 84%
    04:00 +5°C° 0 mm 5 mps 747 mmHg 80%
    05:00 +5°C° 0 mm 6 mps 747 mmHg 76%
    06:00 +5°C° 0 mm 6 mps 748 mmHg 71%
    07:00 +8°C° 0 mm 7 mps 748 mmHg 68%
    08:00 +9°C° 0 mm 7 mps 748 mmHg 64%
    09:00 +10°C° 0 mm 7 mps 748 mmHg 61%
    10:00 +10°C° 0.2 mm 8 mps 748 mmHg 61%
    11:00 +11°C° 0.2 mm 8 mps 748 mmHg 60%
    12:00 +11°C° 0.2 mm 8 mps 749 mmHg 60%
    13:00 +11°C° 0.2 mm 9 mps 748 mmHg 61%
    14:00 +11°C° 0.2 mm 9 mps 748 mmHg 62%
    15:00 +11°C° 0.2 mm 9 mps 748 mmHg 63%
    16:00 +11°C° 0.2 mm 8 mps 748 mmHg 66%
    17:00 +11°C° 0.2 mm 7 mps 749 mmHg 69%
    18:00 +11°C° 0.2 mm 6 mps 749 mmHg 71%
    19:00 +10°C° 0 mm 6 mps 749 mmHg 74%
    20:00 +9°C° 0 mm 6 mps 749 mmHg 77%
    21:00 +8°C° 0 mm 5 mps 749 mmHg 80%
    22:00 +7°C° 0 mm 5 mps 749 mmHg 79%
    23:00 +7°C° 0 mm 5 mps 749 mmHg 79%
    Show more